Regional Weather Roundup
Issued by NWS Northern Indiana

Home | Current Version | Previous Version | Graphics & Text | Print | Product List | Glossary On
Versions: 1 2 3 4 5 6 7 8 9 10 11 12 13 14 15 16 17 18 19 20 21 22 23 24 25 26 27 28 29 30 31 32 33 34 35 36 37 38 39 40 41 42 43 44 45 46 47 48 49 50
000
ASUS43 KIWX 180800
RWRIWX

KIWX WEATHER ROUNDUP
NATIONAL WEATHER SERVICE NORTHERN INDIANA
300 AM EST THU DEC 18 2014

NOTE: "FAIR" INDICATES FEW OR NO CLOUDS BELOW 12,000 FEET WITH NO
SIGNIFICANT WEATHER AND/OR OBSTRUCTIONS TO VISIBILITY.

* THESE STATIONS ARE NOT UNDER NWS QUALITY CONTROL. THEY ALSO MAY NOT
  REPORT WEATHER SUCH AS PRECIPITATION OR FOG.

INZ001>027-180900-
NORTHERN INDIANA

CITY           SKY/WX    TMP DP  RH WIND       PRES   REMARKS
SOUTH BEND     CLOUDY    28  21  75 NW7       30.26R WCI  21
GOSHEN         CLOUDY    27  21  78 W7        30.24S WCI  19
MONTICELLO*    CLOUDY    25  19  78 CALM      30.29R
ANGOLA*        CLOUDY    27  21  80 VRB7      30.21S WCI  19
FORT WAYNE     CLOUDY    27  21  78 W6        30.26R WCI  20
PERU/GRISSOM   CLOUDY    25  24  94 W5        30.27R WCI  20

$$
INZ028>050-180900-
CENTRAL INDIANA

CITY           SKY/WX    TMP DP  RH WIND       PRES   REMARKS
LAFAYETTE      CLOUDY    25  17  72 CALM      30.30S
KOKOMO*        CLOUDY    27  18  69 W6        30.28R WCI  20
MUNCIE*        CLOUDY    26  19  74 SW3       30.27R
INDIANAPOLIS   CLOUDY    24  18  77 N6        30.28R WCI  17

$$
MIZ043>046-050>051-056>058-064>065-071>073-077>080-180900-
SOUTHWEST LOWER MICHIGAN

CITY           SKY/WX    TMP DP  RH WIND       PRES   REMARKS
BATTLE CREEK   CLOUDY    29  21  72 W9        30.21S WCI  20
BENTON HARBOR  CLOUDY    28  22  78 W8        30.26R WCI  20
COLDWATER*     CLOUDY    28  22  77 W9        30.21S WCI  19
HILLSDALE*     CLOUDY    28  23  81 W9        30.19S WCI  19
HOLLAND        CLOUDY    33  23  66 NW7       30.23S WCI  27
GRAND RAPIDS   CLOUDY    29  23  78 W8        30.22R WCI  21
KALAMAZOO      CLOUDY    29  21  72 W6        30.23R WCI  23
STURGIS*       CLOUDY    27  21  80 W7        30.22R WCI  19
THREE RIVERS*  CLOUDY    29  22  75 W7        30.24R WCI  22

$$
OHZ001>008-015>018-024>025-180900-
NORTHWEST OHIO

CITY           SKY/WX    TMP DP  RH WIND       PRES   REMARKS
FINDLAY        CLOUDY    29  21  72 W10       30.22S WCI  20
TOLEDO EXPRESS CLOUDY    28  20  71 W8        30.22S WCI  20
TOLEDO METCALF CLOUDY    29  20  69 W9        30.22S WCI  20
LIMA           CLOUDY    30  20  66 NW12      30.23S WCI  20

$$
AND FOR LAKE MICHIGAN COASTAL AND OPEN LAKE BUOY OBSERVATIONS

STATION/POSITION TEMP    WIND        PRES    VSBY  WAVE
                 AIR SEA DIR/SP/G                  HT/PER
                 (F)     (DEG/KT/KT) (MB)    (MI)  (FT/S)
CALUMET HARBOR    25     280/  4/  8 1024.1S
SAINT JOSEPH      30     290/  9/ 15 1024.4F

$$
&&


USA.gov is the U.S. government's official web portal to all federal, state and local government web resources and services.